SQ6MTB Weather Reports


Display with metric or nautical units.
time (UTC)temp
F
wind
direction
speed
MPH
gust
MPH
rain 1hr
in
rain 24hr
in
rain mn
in
humidity
%
barometer
mb
20260510135008 69 47 2.0 6.0 0.00 0.00 0.00 44 1011.8
20260510134547 69 36 2.0 7.0 0.00 0.00 0.00 43 1011.9
20260510134056 69 96 2.0 7.0 0.00 0.00 0.00 44 1012.0
20260510133511 69 22 0.0 6.0 0.00 0.00 0.00 43 1012.2
20260510133025 69 39 2.0 6.0 0.00 0.00 0.00 44 1012.3
20260510132545 69 45 2.0 8.0 0.00 0.00 0.00 44 1012.3
20260510132012 69 41 3.0 7.0 0.00 0.00 0.00 42 1012.4
20260510131530 70 65 1.0 7.0 0.00 0.00 0.00 42 1012.4
20260510131048 69 260 1.0 7.0 0.00 0.00 0.00 42 1012.6
20260510130505 69 179 1.0 6.0 0.00 0.00 0.00 43 1012.6
20260510130033 69 69 0.0 4.0 0.00 0.00 0.00 44 1012.6
20260510125551 69 55 0.0 7.0 0.00 0.00 0.00 42 1012.8
20260510125021 69 262 0.0 6.0 0.00 0.00 0.00 43 1012.9
20260510124538 69 279 2.0 6.0 0.00 0.00 0.00 42 1012.8
20260510124052 69 272 2.0 7.0 0.00 0.00 0.00 46 1013.0
20260510123505 69 270 3.0 9.0 0.00 0.00 0.00 44 1013.0
20260510123023 69 177 2.0 9.0 0.00 0.00 0.00 45 1013.1
20260510122539 69 277 4.0 9.0 0.00 0.00 0.00 43 1012.9
20260510122058 69 286 3.0 9.0 0.00 0.00 0.00 42 1013.0
20260510121523 69 257 2.0 5.0 0.00 0.00 0.00 45 1013.1
20260510121039 69 204 0.0 3.0 0.00 0.00 0.00 43 1013.1
20260510120555 69 204 0.0 4.0 0.00 0.00 0.00 44 1013.3
20260510120020 69 232 2.0 4.0 0.00 0.00 0.00 43 1013.4
20260510115538 69 55 0.0 7.0 0.00 0.00 0.00 45 1013.4
20260510115052 69 241 2.0 7.0 0.00 0.00 0.00 45 1013.5
20260510114508 68 254 0.0 5.0 0.00 0.00 0.00 44 1013.4
20260510114042 68 259 3.0 5.0 0.00 0.00 0.00 44 1013.5
20260510113557 68 336 1.0 9.0 0.00 0.00 0.00 46 1013.6
20260510113023 68 221 4.0 9.0 0.00 0.00 0.00 43 1013.6
20260510112541 68 228 0.0 5.0 0.00 0.00 0.00 45 1013.7
20260510112051 68 72 1.0 6.0 0.00 0.00 0.00 47 1013.7
20260510111508 67 355 2.0 5.0 0.00 0.00 0.00 47 1013.8
20260510111023 66 43 1.0 5.0 0.00 0.00 0.00 49 1013.9
20260510110544 66 46 1.0 5.0 0.00 0.00 0.00 47 1014.0
20260510110104 66 69 2.0 9.0 0.00 0.00 0.00 46 1014.0
20260510105517 66 66 3.0 9.0 0.00 0.00 0.00 47 1014.1
20260510105032 65 90 1.0 7.0 0.00 0.00 0.00 48 1014.2
20260510104606 65 230 1.0 5.0 0.00 0.00 0.00 48 1014.2
20260510104008 65 53 3.0 8.0 0.00 0.00 0.00 46 1014.2
20260510103534 66 81 2.0 8.0 0.00 0.00 0.00 47 1014.3
20260510103054 66 267 1.0 4.0 0.00 0.00 0.00 47 1014.2
20260510102519 65 248 1.0 5.0 0.00 0.00 0.00 48 1014.3
20260510102036 65 243 2.0 5.0 0.00 0.00 0.00 49 1014.6
20260510101557 65 207 0.0 7.0 0.00 0.00 0.00 48 1014.6
20260510101009 64 44 0.0 7.0 0.00 0.00 0.00 48 1014.7
20260510100539 64 109 2.0 7.0 0.00 0.00 0.00 49 1014.9
20260510100059 64 160 1.0 5.0 0.00 0.00 0.00 50 1014.9
20260510095514 64 51 2.0 6.0 0.00 0.00 0.00 49 1014.9
20260510095033 64 107 2.0 8.0 0.00 0.00 0.00 50 1014.9
20260510094552 63 267 1.0 8.0 0.00 0.00 0.00 50 1015.0
20260510094010 63 49 3.0 10.0 0.00 0.00 0.00 51 1014.9
20260510093539 63 161 4.0 10.0 0.00 0.00 0.00 50 1015.0
20260510093052 63 132 2.0 11.0 0.00 0.00 0.00 51 1015.1
20260510092512 63 179 4.0 11.0 0.00 0.00 0.00 50 1015.3
20260510092039 63 150 4.0 10.0 0.00 0.00 0.00 50 1015.4
20260510091558 63 82 3.0 13.0 0.00 0.00 0.00 52 1015.4
20260510091012 63 257 3.0 13.0 0.00 0.00 0.00 49 1015.6
20260510090530 63 58 0.0 9.0 0.00 0.00 0.00 51 1015.6
20260510090050 62 45 3.0 9.0 0.00 0.00 0.00 55 1015.7
20260510085506 62 87 4.0 8.0 0.00 0.00 0.00 52 1015.8
20260510085036 61 92 2.0 8.0 0.00 0.00 0.00 52 1015.9
20260510084559 61 80 4.0 9.0 0.00 0.00 0.00 53 1015.9
20260510084002 60 175 3.0 11.0 0.00 0.00 0.00 56 1015.9
20260510083521 60 169 3.0 10.0 0.00 0.00 0.00 55 1015.9
20260510083054 60 111 5.0 10.0 0.00 0.00 0.00 54 1016.0
20260510082506 60 140 6.0 10.0 0.00 0.00 0.00 55 1016.2
20260510082036 60 59 4.0 10.0 0.00 0.00 0.00 56 1016.0
20260510081556 59 133 3.0 10.0 0.00 0.00 0.00 58 1016.0
20260510081022 59 24 1.0 9.0 0.00 0.00 0.00 59 1016.1
20260510080541 59 155 5.0 10.0 0.00 0.00 0.00 59 1016.2
20260510080008 58 156 4.0 10.0 0.00 0.00 0.00 60 1016.3
20260510075527 58 174 6.0 9.0 0.00 0.00 0.00 60 1016.3
20260510075041 58 164 2.0 8.0 0.00 0.00 0.00 59 1016.2
20260510074505 57 157 3.0 9.0 0.00 0.00 0.00 62 1016.3
20260510074025 57 159 4.0 9.0 0.00 0.00 0.00 62 1016.3
20260510073553 56 113 5.0 9.0 0.00 0.00 0.00 62 1016.4
20260510073010 55 123 2.0 9.0 0.00 0.00 0.00 65 1016.5
20260510072540 55 31 3.0 12.0 0.00 0.00 0.00 66 1016.4
20260510072059 54 152 7.0 14.0 0.00 0.00 0.00 66 1016.5
20260510071539 55 156 9.0 14.0 0.00 0.00 0.00 64 1016.6
20260510071045 55 169 6.0 11.0 0.00 0.00 0.00 64 1016.6
20260510070511 55 151 4.0 11.0 0.00 0.00 0.00 66 1016.7
20260510070030 55 169 2.0 9.0 0.00 0.00 0.00 67 1016.9
20260510065547 55 242 3.0 9.0 0.00 0.00 0.00 68 1016.8
20260510065012 54 53 2.0 6.0 0.00 0.00 0.00 69 1016.9
20260510064532 54 142 3.0 7.0 0.00 0.00 0.00 70 1016.9
20260510064051 53 168 4.0 9.0 0.00 0.00 0.00 71 1017.0
20260510063508 53 180 2.0 9.0 0.00 0.00 0.00 73 1016.9
20260510063026 52 163 2.0 8.0 0.00 0.00 0.00 72 1016.9
20260510062543 52 157 2.0 10.0 0.00 0.00 0.00 74 1017.0
20260510062102 51 149 5.0 10.0 0.00 0.00 0.00 74 1017.1
20260510061518 51 161 5.0 9.0 0.00 0.00 0.00 75 1017.1
20260510061037 50 114 5.0 9.0 0.00 0.00 0.00 75 1017.2
20260510060557 50 146 4.0 9.0 0.00 0.00 0.00 76 1017.1
20260510060023 50 144 3.0 6.0 0.00 0.00 0.00 78 1017.1
20260510055542 50 185 2.0 8.0 0.00 0.00 0.00 79 1017.0
20260510055103 49 118 2.0 8.0 0.00 0.00 0.00 80 1017.2
20260510054523 49 69 3.0 9.0 0.00 0.00 0.00 79 1017.4
20260510054036 48 169 3.0 9.0 0.00 0.00 0.00 81 1017.3
20260510053555 48 113 3.0 9.0 0.00 0.00 0.00 82 1017.3
20260510053021 47 167 3.0 9.0 0.00 0.00 0.00 85 1017.5
20260510052542 46 160 3.0 7.0 0.00 0.00 0.00 86 1017.3
20260510052011 46 151 2.0 6.0 0.00 0.00 0.00 87 1017.2
20260510051547 45 163 2.0 5.0 0.00 0.00 0.00 88 1017.4
20260510051004 44 182 2.0 5.0 0.00 0.00 0.00 89 1017.4
20260510050523 44 161 2.0 5.0 0.00 0.00 0.00 90 1017.4
20260510050042 43 70 1.0 4.0 0.00 0.00 0.00 90 1017.4
20260510045601 43 120 0.0 4.0 0.00 0.00 0.00 90 1017.3
20260510045027 42 61 1.0 3.0 0.00 0.00 0.00 90 1017.2
20260510044543 42 97 1.0 3.0 0.00 0.00 0.00 90 1017.3
20260510044102 42 53 1.0 3.0 0.00 0.00 0.00 90 1017.3
20260510043518 42 75 1.0 4.0 0.00 0.00 0.00 90 1017.2
20260510043034 41 74 1.0 4.0 0.00 0.00 0.00 90 1017.2
20260510042550 41 143 2.0 4.0 0.00 0.00 0.00 90 1017.3
20260510042010 41 172 1.0 5.0 0.00 0.00 0.00 90 1017.2
20260510041529 41 86 1.0 4.0 0.00 0.00 0.00 90 1017.1
20260510041048 41 144 1.0 4.0 0.00 0.00 0.00 90 1017.2
20260510040503 41 55 1.0 5.0 0.00 0.00 0.00 90 1017.1
20260510040018 41 141 2.0 5.0 0.00 0.00 0.00 90 1017.3
20260510035537 41 126 1.0 4.0 0.00 0.00 0.00 90 1017.2
20260510035055 41 144 1.0 3.0 0.00 0.00 0.00 90 1017.3
20260510034521 41 113 0.0 4.0 0.00 0.00 0.00 90 1017.3
20260510034042 41 100 1.0 4.0 0.00 0.00 0.00 90 1017.4
20260510033505 41 96 0.0 4.0 0.00 0.00 0.00 90 1017.4
20260510033026 41 55 1.0 5.0 0.00 0.00 0.00 90 1017.4
20260510032553 41 40 1.0 5.0 0.00 0.00 0.00 90 1017.4
20260510032009 41 35 2.0 4.0 0.00 0.00 0.00 89 1017.4
20260510031540 41 119 0.0 3.0 0.00 0.00 0.00 89 1017.6
20260510031058 41 191 0.0 3.0 0.00 0.00 0.00 89 1017.6
20260510030527 41 86 0.0 4.0 0.00 0.00 0.00 89 1017.4
20260510030047 41 93 1.0 4.0 0.00 0.00 0.00 89 1017.4
20260510025557 41 76 0.0 4.0 0.00 0.00 0.00 89 1017.5
20260510025025 41 107 1.0 4.0 0.00 0.00 0.00 89 1017.6
20260510024552 41 53 1.0 3.0 0.00 0.00 0.00 89 1017.7
20260510024010 41 77 1.0 4.0 0.00 0.00 0.00 89 1017.7
20260510023529 41 91 2.0 4.0 0.00 0.00 0.00 89 1017.7
20260510023049 41 78 2.0 4.0 0.00 0.00 0.00 89 1017.9
20260510022506 40 69 1.0 4.0 0.00 0.00 0.00 89 1018.0
20260510022034 40 53 0.0 0.0 0.00 0.00 0.00 89 1018.1
20260510021553 40 107 0.0 0.0 0.00 0.00 0.00 89 1018.2
20260510021010 40 58 0.0 0.0 0.00 0.00 0.00 88 1018.2
20260510020530 40 58 0.0 0.0 0.00 0.00 0.00 88 1018.2
20260510020053 40 58 0.0 0.0 0.00 0.00 0.00 88 1018.3
20260510015506 40 84 0.0 0.0 0.00 0.00 0.00 88 1018.4
20260510015023 41 84 0.0 0.0 0.00 0.00 0.00 88 1018.4
20260510014543 41 84 0.0 0.0 0.00 0.00 0.00 87 1018.4
20260510014102 41 84 0.0 0.0 0.00 0.00 0.00 87 1018.5
20260510013518 41 84 0.0 0.0 0.00 0.00 0.00 87 1018.6
20260510013041 41 84 0.0 0.0 0.00 0.00 0.00 87 1018.7
20260510012600 41 84 0.0 0.0 0.00 0.00 0.00 87 1018.6
20260510012023 41 84 0.0 0.0 0.00 0.00 0.00 87 1018.7
20260510011544 41 84 0.0 0.0 0.00 0.00 0.00 87 1018.6
20260510011009 41 84 0.0 0.0 0.00 0.00 0.00 87 1018.6
20260510010528 42 84 0.0 0.0 0.00 0.00 0.00 87 1018.7
20260510010100 42 84 0.0 0.0 0.00 0.00 0.00 87 1018.7
20260510005507 42 84 0.0 0.0 0.00 0.00 0.00 87 1018.7
20260510005025 42 84 0.0 0.0 0.00 0.00 0.00 87 1018.8
20260510004543 42 84 0.0 0.0 0.00 0.00 0.00 86 1018.8
20260510004009 42 84 0.0 0.0 0.00 0.00 0.00 86 1018.9
20260510003529 42 63 0.0 0.0 0.00 0.00 0.00 86 1018.8
20260510003048 42 65 0.0 0.0 0.00 0.00 0.00 86 1018.9
20260510002506 43 65 0.0 0.0 0.00 0.00 0.00 86 1018.9
20260510002033 43 65 0.0 0.0 0.00 0.00 0.00 86 1018.9
20260510001553 43 65 0.0 0.0 0.00 0.00 0.00 86 1019.0
20260510001020 43 65 0.0 0.0 0.00 0.00 0.00 86 1019.2
20260510000540 43 65 0.0 0.0 0.00 0.00 0.00 86 1019.1
20260510000046 43 65 0.0 0.0 0.00 0.00 0.00 86 1019.2
20260509235502 43 65 0.0 0.0 0.00 0.00 0.00 86 1019.2
20260509235030 44 65 0.0 0.0 0.00 0.00 0.00 86 1019.1
20260509234601 44 145 0.0 0.0 0.00 0.00 0.00 86 1019.3
20260509234005 44 145 0.0 0.0 0.00 0.00 0.00 86 1019.4
20260509233524 44 145 0.0 0.0 0.00 0.00 0.00 86 1019.4
20260509233042 44 145 0.0 0.0 0.00 0.00 0.00 85 1019.4
20260509232602 44 145 0.0 0.0 0.00 0.00 0.00 85 1019.5
20260509232026 44 169 0.0 0.0 0.00 0.00 0.00 85 1019.5
20260509231546 44 96 0.0 0.0 0.00 0.00 0.00 84 1019.6
20260509231010 44 159 0.0 0.0 0.00 0.00 0.00 84 1019.6
20260509230532 44 159 0.0 0.0 0.00 0.00 0.00 83 1019.6
20260509230104 44 159 0.0 0.0 0.00 0.00 0.00 83 1019.7
20260509225514 45 159 0.0 0.0 0.00 0.00 0.00 83 1019.6
20260509225043 45 159 0.0 0.0 0.00 0.00 0.00 83 1019.6
20260509224600 45 159 0.0 0.0 0.00 0.00 0.00 82 1019.7
20260509224025 45 159 0.0 0.0 0.00 0.00 0.00 82 1019.7
20260509223546 46 159 0.0 0.0 0.00 0.00 0.00 81 1019.7
20260509223008 46 159 0.0 0.0 0.00 0.00 0.00 81 1019.7
20260509222536 46 159 0.0 0.0 0.00 0.00 0.00 81 1019.7
20260509222056 46 159 0.0 0.0 0.00 0.00 0.00 81 1019.8
20260509221526 47 159 0.0 0.0 0.00 0.00 0.00 81 1019.8
20260509221032 47 152 0.0 0.0 0.00 0.00 0.00 81 1019.8
20260509220553 47 144 0.0 0.0 0.00 0.00 0.00 81 1019.8
20260509220006 47 173 0.0 0.0 0.00 0.00 0.00 81 1019.8
20260509215536 47 174 0.0 0.0 0.00 0.00 0.00 81 1019.8
20260509215056 47 174 0.0 0.0 0.00 0.00 0.00 80 1019.9
20260509214515 47 120 0.0 3.0 0.00 0.00 0.00 80 1020.0
20260509214032 47 156 0.0 3.0 0.00 0.00 0.00 81 1019.9
20260509213552 47 162 2.0 4.0 0.00 0.00 0.00 81 1019.9
20260509213008 47 145 0.0 0.0 0.00 0.00 0.00 81 1020.0
20260509212528 47 145 0.0 0.0 0.00 0.00 0.00 81 1020.1
20260509212046 47 158 0.0 0.0 0.00 0.00 0.00 81 1020.2
20260509211602 47 140 0.0 0.0 0.00 0.00 0.00 81 1020.2
20260509211028 46 140 0.0 0.0 0.00 0.00 0.00 81 1020.1
20260509210548 46 140 0.0 0.0 0.00 0.00 0.00 81 1020.1
20260509210016 47 140 0.0 0.0 0.00 0.00 0.00 80 1020.1
20260509205533 47 140 0.0 0.0 0.00 0.00 0.00 80 1020.1
20260509205053 47 140 0.0 0.0 0.00 0.00 0.00 80 1020.1
20260509204510 47 140 0.0 0.0 0.00 0.00 0.00 79 1020.2
20260509204040 47 140 0.0 0.0 0.00 0.00 0.00 79 1020.3
20260509203558 48 140 0.0 0.0 0.00 0.00 0.00 79 1020.3
20260509203200 48 140 0.0 0.0 0.00 0.00 0.00 78 1020.3
20260509202547 48 140 0.0 0.0 0.00 0.00 0.00 78 1020.2
20260509202003 48 140 0.0 0.0 0.00 0.00 0.00 78 1020.1
20260509201522 48 140 0.0 0.0 0.00 0.00 0.00 77 1020.0
20260509201041 48 140 0.0 0.0 0.00 0.00 0.00 77 1020.0
20260509200600 49 140 0.0 0.0 0.00 0.00 0.00 77 1020.1
20260509200026 49 140 0.0 0.0 0.00 0.00 0.00 77 1020.0
20260509195545 49 140 0.0 0.0 0.00 0.00 0.00 76 1020.0
20260509195011 50 140 0.0 0.0 0.00 0.00 0.00 76 1019.9
20260509194530 50 140 0.0 0.0 0.00 0.00 0.00 75 1020.0
20260509194050 50 140 0.0 0.0 0.00 0.00 0.00 75 1020.0
20260509193508 50 140 0.0 0.0 0.00 0.00 0.00 75 1019.9
20260509193044 50 140 0.0 0.0 0.00 0.00 0.00 75 1020.0
20260509192554 51 140 0.0 0.0 0.00 0.00 0.00 75 1019.9
20260509192032 51 140 0.0 0.0 0.00 0.00 0.00 75 1019.9
20260509191605 51 140 0.0 0.0 0.00 0.00 0.00 75 1019.9
20260509191007 52 140 0.0 0.0 0.00 0.00 0.00 74 1019.9
20260509190530 52 140 0.0 0.0 0.00 0.00 0.00 74 1019.9
20260509190058 52 140 0.0 0.0 0.00 0.00 0.00 73 1019.8
20260509185503 53 140 0.0 0.0 0.00 0.00 0.00 72 1019.9
20260509185030 53 140 0.0 0.0 0.00 0.00 0.00 72 1019.9
20260509184550 54 140 0.0 0.0 0.00 0.00 0.00 71 1019.8
20260509184015 54 111 0.0 0.0 0.00 0.00 0.00 69 1019.8
20260509183535 55 62 0.0 0.0 0.00 0.00 0.00 68 1019.8
20260509183054 55 62 0.0 0.0 0.00 0.00 0.00 67 1019.8
20260509182514 55 69 0.0 0.0 0.00 0.00 0.00 66 1019.8
20260509182031 56 69 0.0 0.0 0.00 0.00 0.00 66 1019.9
20260509181550 56 69 0.0 0.0 0.00 0.00 0.00 65 1019.9
20260509181019 57 153 0.0 0.0 0.00 0.00 0.00 65 1019.9
20260509180534 57 136 0.0 0.0 0.00 0.00 0.00 65 1020.0
20260509180054 57 136 0.0 0.0 0.00 0.00 0.00 64 1020.0
20260509175510 57 153 0.0 0.0 0.00 0.00 0.00 62 1020.0
20260509175029 57 153 0.0 0.0 0.00 0.00 0.00 61 1020.1
20260509174549 57 159 0.0 0.0 0.00 0.00 0.00 60 1020.0
20260509174008 58 137 0.0 0.0 0.00 0.00 0.00 59 1020.1
20260509173537 58 137 0.0 0.0 0.00 0.00 0.00 59 1020.0
20260509173105 58 137 0.0 0.0 0.00 0.00 0.00 59 1020.1
20260509172513 58 144 0.0 0.0 0.00 0.00 0.00 59 1020.0
20260509172029 58 144 0.0 0.0 0.00 0.00 0.00 59 1020.1
20260509171604 58 300 0.0 0.0 0.00 0.00 0.00 59 1020.1
20260509171014 58 221 0.0 2.0 0.00 0.00 0.00 58 1020.0
20260509170533 58 170 0.0 4.0 0.00 0.00 0.00 58 1020.1
20260509170050 58 144 0.0 4.0 0.00 0.00 0.00 57 1020.1
20260509165506 58 109 0.0 3.0 0.00 0.00 0.00 57 1020.1
20260509165036 58 78 0.0 4.0 0.00 0.00 0.00 57 1020.1
20260509164557 58 63 1.0 3.0 0.00 0.00 0.00 57 1020.1
20260509164023 58 92 0.0 4.0 0.00 0.00 0.00 57 1020.1
20260509163540 58 69 1.0 4.0 0.00 0.00 0.00 57 1020.2
20260509163057 58 78 2.0 6.0 0.00 0.00 0.00 56 1020.1
20260509162507 58 65 3.0 6.0 0.00 0.00 0.00 56 1020.2
20260509162036 58 98 2.0 6.0 0.00 0.00 0.00 57 1020.3
20260509161511 58 106 2.0 5.0 0.00 0.00 0.00 57 1020.4
20260509161029 58 80 2.0 5.0 0.00 0.00 0.00 56 1020.4
20260509160549 58 84 1.0 6.0 0.00 0.00 0.00 57 1020.5
20260509160006 58 42 1.0 6.0 0.00 0.00 0.00 56 1020.4
20260509155532 58 61 2.0 5.0 0.00 0.00 0.00 57 1020.4
20260509155052 58 94 3.0 5.0 0.00 0.00 0.00 56 1020.5
20260509154508 58 69 2.0 7.0 0.00 0.00 0.00 57 1020.5
20260509154033 59 61 2.0 7.0 0.00 0.00 0.00 57 1020.6
20260509153552 59 95 2.0 7.0 0.00 0.00 0.00 58 1020.5
20260509153018 59 78 4.0 8.0 0.00 0.00 0.00 57 1020.6
20260509152535 59 49 2.0 6.0 0.00 0.00 0.00 57 1020.6
20260509152055 59 44 3.0 9.0 0.00 0.00 0.00 58 1020.5
20260509151510 59 61 4.0 9.0 0.00 0.00 0.00 58 1020.6
20260509151024 58 64 4.0 9.0 0.00 0.00 0.00 57 1020.6
20260509150543 59 68 4.0 9.0 0.00 0.00 0.00 57 1020.6
20260509150103 59 53 2.0 7.0 0.00 0.00 0.00 56 1020.6
20260509145526 58 50 1.0 9.0 0.00 0.00 0.00 57 1020.6
20260509145044 58 42 3.0 9.0 0.00 0.00 0.00 58 1020.6
20260509144511 58 63 4.0 10.0 0.00 0.00 0.00 57 1020.7
20260509144029 59 28 3.0 10.0 0.00 0.00 0.00 56 1020.7
20260509143553 59 58 3.0 6.0 0.00 0.00 0.00 55 1020.7
20260509143005 59 99 2.0 6.0 0.00 0.00 0.00 54 1020.8
20260509142533 59 81 2.0 8.0 0.00 0.00 0.00 55 1020.7
20260509142051 59 83 4.0 8.0 0.00 0.00 0.00 53 1020.8
20260509141518 59 154 0.0 4.0 0.00 0.00 0.00 54 1020.7
20260509141027 59 145 1.0 4.0 0.00 0.00 0.00 55 1020.8
20260509140547 59 82 0.0 6.0 0.00 0.00 0.00 55 1020.8
20260509140003 59 61 0.0 4.0 0.00 0.00 0.00 54 1020.8
20260509135530 59 43 2.0 4.0 0.00 0.00 0.00 53 1020.8